User: anonymous   Login
Location: Albuquerque Trailhead
(34.7934°N, 106.3736°W)
Time: 07:35:26
(UTC+00:00)
Language:

FALCON 9 DEB - Orbit

View from above orbital plane
View from above orbital plane
View from above satellite
View from above satellite

Ground track
Ground track

The orbit data is extracted from the following two-line orbital elements,

1 44295U 19029BN  21267.91606678  .00009121  00000-0  18567-3 0  9999
2 44295  53.0005  65.0104 0009618 115.6043 244.5958 15.47030272133307
Epoch (UTC): 24 September 2021 21:59:08
Eccentricity: 0.0009618
inclination: 53.0005°
perigee height: 419 km
apogee height: 432 km
right ascension of ascending node: 65.0104°
argument of perigee: 115.6043°
revolutions per day: 15.47030272
mean anomaly at epoch: 244.5958°
orbit number at epoch: 13330

The dashed part of the orbit path shows where the satellite is in the earth's shadow,  

DLR